Uncategorized

2022 Ratings: Lamplighter

Before I drift off to sleep, I wanted to find out if I still knew how to do these things.

I was considering creating new infographics, but these are still straight forward. I will update the average ratings needed throughout the years

I figure I’ll explain the methodology again at some point early this season, just a refresher for the those who’ve forgot or are new to my way of thinking. Not tonight though, I put on a happy face for the meet, but in reality I’m a walking zombie.

Boys Adjustment: -30
Girls Adjustment: -34

LAMPLIGHTER LUMINARIES

Last season, I used this section to call out athletes and teams that had big days, have been improving, or just have been on my radar for awhile. This could be the girl who’s dropped 3:00 from last year and is now running in the 22’s, this could be the winner. I will tend to pick those near the front, but coaches, parents, teammates – let me know if someone’s deserving of praise. We’re all equally important.

Alena Blumberg, Dexter: Closed her freshman year with six consecutive sub-20’s. First race of her sophomore year continued on that path. It should be noted the course was long (at least advertised as 3.25 last year and I don’t believe it changed), the air was thick, and it was her debut. Many of the top teams in Dexter’s region (4) were here, Alena was right in the thick of the top Brighton and Howell girls, showing she’s started in position to improve on last year’s regional finish – and maybe more.

Zach Larson, Rochester Hills Stoney Creek: Has only broken 18:00 twice in his high school career, well under that mark yesterday. Yes, this breakout (17:51 > 17:08) could be predicted from his track season, but it’s track don’t mean squat come fall. Stoney Creek could slot themselves into one of those top-3 spots over in Region 9, Zach running at this level throughout the season will be a bonus for the Cougars’ chances.

GradeNameTimeTeamRating
11Brendan Herger15:53.7Northville212.1
11Thomas Westphal16:17.4New Baltimore Anchor Bay204.2
12Jared Platt16:24.6White Lake Lakeland201.8
12Nathan Riddering16:25.0Novi201.7
11Connor Clor16:25.1Romeo201.6
11Vincent Guaresimo16:26.3Romeo201.2
11Sebastian Ramirez16:30.1Royal Oak200.0
11Dylan Penberthy16:30.7Macomb L’Anse Creuse North199.8
12Nicolas Fry16:32.1Ann Arbor Skyline199.3
12Brady Heron16:32.2Northville199.3
12Griffin Conway16:32.5Novi199.2
11Luke Suliman16:32.9Ann Arbor Skyline199.0
10Ethan Powell16:34.1Northville198.6
11Brandon Anderson16:35.1Dexter198.3
12Brendan Downey16:48.7Grosse Pointe South193.8
12Christopher Van Lent16:51.7Ann Arbor Skyline192.8
12Brock Malaikal16:53.6Northville192.1
9Dylan Halsey16:57.4Macomb L’Anse Creuse North190.9
10Alex Doneth16:57.6Mason190.8
12James Meninga17:02.3Mason189.2
12Evan Lord17:07.2Rochester Hills Stoney Creek187.6
12Zachary Larson17:08.8Rochester Hills Stoney Creek187.1
11Pierce Grzymkowski17:09.1White Lake Lakeland187.0
9Lance Edghill17:09.9Fraser186.7
11Nicholas Yaquinto17:10.9Northville186.4
12Owen Ackerman17:15.6Dexter184.8
12Matthew Atkinson17:19.3Detroit Catholic Central183.6
12Brandon Latta17:20.9Northville183.0
12David Whitaker17:22.5Northville182.5
12Jack Kelly17:29.3Detroit Catholic Central180.2
12Reuben Philip17:29.9Livonia Stevenson180.0
11Mason Jett17:30.2Ann Arbor Skyline179.9
12Michael Ehresman17:30.6Detroit Catholic Central179.8
12Raunak Chattopadhyay17:31.3Northville179.6
12Pablo Razny17:32.1Detroit Catholic Central179.3
11Michael Magnoli17:32.2Romeo179.3
12Eli Hullinger17:33.4Romeo178.9
12Alex Hoffman17:34.5Dexter178.5
12Cameron Pierce17:38.8Leslie177.1
11Brandon Penberthy17:40.2Macomb L’Anse Creuse North176.6
12Ben Gnatek17:40.4Novi176.5
11Jet Miller17:42.4Grosse Pointe South175.9
10Brandon Cummings17:49.6Utica Ford173.5
12Josh Lassaline17:51.1Detroit Catholic Central173.0
12Ian Randall17:53.7Rochester Hills Stoney Creek172.1
12Ryland Hughes17:53.8Livonia Stevenson172.1
12Derrian Kumfer17:54.1Romeo172.0
9Gavin Johns17:54.7White Lake Lakeland171.8
11Bryce Goodsell17:55.9Romeo171.4
12Owen Murray18:02.9Rochester Hills Stoney Creek169.0
11Sam Gibson18:03.2Dexter168.9
11Noah DeLand18:03.2Howell168.9
11Vincent Filipek18:05.2Northville168.3
11Zachary Rubicz18:06.5New Baltimore Anchor Bay167.8
10Thomas Watson18:07.0Detroit Catholic Central167.7
11Noah Tiernan18:07.6White Lake Lakeland167.5
12George Householder18:09.7Livonia Franklin166.8
10Owen Gould18:10.7Romeo166.4
9Luke Allen18:13.8Romeo165.4
10Ishaan Kundapur18:13.9Northville165.4
11Aidan Leslie18:14.6New Baltimore Anchor Bay165.1
9Brock Washburn18:15.3Rochester Hills Stoney Creek164.9
11Luke Schwartz18:17.4Northville164.2
12Jonathan Gendich18:19.6Rochester Hills Stoney Creek163.5
11Caden Ehgotz18:20.1Belleville163.3
11Alex Eplin18:22.8Livonia Stevenson162.4
11Ryan Noonan18:23.8Walled Lake Western162.1
12Rylan Teddy18:23.9Dexter162.0
10Lucas Wood18:24.1Howell162.0
12Max Mader18:24.1Madison Heights Bishop Foley162.0
10Chase McDougall18:24.4Livonia Stevenson161.9
10Owen Ryan18:25.2Detroit Catholic Central161.6
11Paul Minock18:26.5Ann Arbor Skyline161.2
11Logan Barthlow18:27.3Novi160.9
11Braxton Sipes18:27.3Royal Oak160.9
12Joshua Gagne18:27.7Temperance Bedford160.8
11Ryan Ward18:27.7White Lake Lakeland160.8
10Matthew Verellen18:28.0White Lake Lakeland160.7
10Eugene Haley18:28.2Detroit Catholic Central160.6
11Gabe Bock18:29.9Temperance Bedford160.0
12Connor Ford18:30.5Howell159.8
10Caleb Snyder18:31.4Dexter159.5
10Drake Wallace18:32.0Howell159.3
12Alex Hammond18:32.1Royal Oak159.3
12Anderson Corum18:32.5Birmingham Seaholm159.2
12Harry Krafchak18:32.7Dearborn Heights Crestwood159.1
10Evan Lamb18:33.6Romeo158.8
11Johnathan Mitchell18:34.1Utica Ford158.6
12Ryan Lee18:34.5New Baltimore Anchor Bay158.5
10Ritvik Ellendula18:36.0Northville158.0
10Nick Barretto18:37.0Northville157.7
11Ethan Wilkie18:37.6Romeo157.5
12Kaden Jensen18:39.8Dexter156.7
10Aidan Ortiz18:42.6Temperance Bedford155.8
12John Abraham18:42.9Birmingham Seaholm155.7
12Ethan Lubahn18:44.2Leslie155.3
10Nicholas Balla18:44.7Temperance Bedford155.1
12Jack Bondy18:45.2Rochester Hills Stoney Creek154.9
10Jordan Bunce18:47.3Temperance Bedford154.2
9James Brickel18:47.9Romeo154.0
12Aidan Hale18:48.8Ann Arbor Skyline153.7
11Nathon Zydel18:48.8Macomb L’Anse Creuse North153.7
12Andrew Thomson18:50.6Fraser153.1
11Gabe Rusch18:51.1New Baltimore Anchor Bay153.0
12Alex Redman18:51.4Mason152.9
12Zachary Utz18:52.3Romeo152.6
12Andrew Richard18:54.0Livonia Franklin152.0
11Nolan Rybarczyk18:54.6Macomb L’Anse Creuse North151.8
12Archit Vig18:54.8Rochester Hills Stoney Creek151.7
11Thomas Caulfield18:54.9Grosse Pointe South151.7
10Connor Wallace18:57.0Howell151.0
10Scott Smith18:57.9Dexter150.7
10James Freeman18:57.9Rochester Hills Stoney Creek150.7
12Sebastian Erbe18:59.0Mason150.3
9Ryan Stojov18:59.5Northville150.2
10Jose Domecq19:02.7Leslie149.1
10Ryan Davenport19:02.8White Lake Lakeland149.1
11Austin Barber19:03.1Northville149.0
12Maximilian Potrzeba19:04.9Northville148.4
9Gavin Tisch19:07.8Detroit Catholic Central147.4
10Gabriel Scott19:08.6White Lake Lakeland147.1
10Jacob Mack19:08.7South Lyon East147.1
11Jeffrey McGuire19:11.5Lutheran HS Westland146.2
9Isaac German19:11.8Novi146.1
10Jacob Yeager19:11.8Temperance Bedford146.1
10Josh Felstow19:12.1Romeo146.0
11Jack Durivage19:12.5Temperance Bedford145.8
12Will Leon19:13.3Livonia Franklin145.6
10Cameron Berna19:14.5Sterling Heights Stevenson145.2
11Liam Hoover19:15.5Howell144.8
12Josh Gifford19:17.4Rochester Hills Stoney Creek144.2
12Max Zgoda19:17.4Royal Oak144.2
12Drake Clemons19:17.5Belleville144.2
11Sean Mitchell19:17.7Howell144.1
11Jacob Anderson19:19.0Livonia Stevenson143.7
10Emmet Thompson19:19.2Howell143.6
12Lucas Glod19:19.4Livonia Stevenson143.5
10Conner McCormick19:19.4Mason143.5
9Lucas Gizoni19:20.7Romeo143.1
11Gavin Kamm19:21.1Northville143.0
12Zain Fakhouri19:21.2Northville142.9
11Kaden Boismier-Behr19:21.3Grosse Pointe South142.9
11Elijah Solnikowski19:21.3Royal Oak142.9
12Matt Keller19:21.9Sterling Heights Stevenson142.7
11Rhenier Weeks19:22.2Utica Ford142.6
11Luke Douglas19:23.1Auburn Hills Oakland Christian142.3
9Luke Dudash19:23.4Dexter142.2
11Jack Youngman19:25.1Northville141.6
11Adrik Ruch19:25.6Temperance Bedford141.5
12Merrick Guthrie19:25.8Royal Oak141.4
12Callen Handyside19:25.9Northville141.4
9Benny Siddall19:26.3Northville141.2
10Pete Lutz19:27.3Madison Heights Lamphere140.9
10Andrew Ehresman19:28.0Detroit Catholic Central140.7
9Brenden Humitz19:28.5White Lake Lakeland140.5
12Matthew Pall19:29.5Novi140.2
11Connor Lent19:31.2Walled Lake Western139.6
9Brady Cichowlas19:32.4Macomb L’Anse Creuse North139.2
10Ethan Shroat19:34.5Westland John Glenn138.5
10Edward Badel19:35.7Detroit Catholic Central138.1
11Charlie Munson19:36.2Dexter137.9
10Carlos Guitron-Ortiz19:37.1Rochester Hills Stoney Creek137.6
12Joseph Barnard19:37.5Macomb L’Anse Creuse North137.5
11TJ Donnan19:38.6Southfield Christian137.1
12Joshua Vu19:39.3Novi136.9
12Shane McCue19:40.2Walled Lake Western136.6
11Blake Mathews19:40.5Mason136.5
10Andres Jaime19:41.6Royal Oak136.1
10Gabriel Mahler19:42.1White Lake Lakeland136.0
10Joshua Sonnenberg19:42.4Grosse Pointe South135.9
9Max Brannan19:43.9Lutheran HS Westland135.4
11Anthony Goatley19:44.4Madison Heights Lamphere135.2
11Alexander Rajewski19:45.0Grosse Pointe South135.0
10Kaleb Dekoeyer19:45.9Temperance Bedford134.7
11Sean McDonald19:46.2Macomb L’Anse Creuse North134.6
10Drew Abbott19:47.0Detroit Catholic Central134.3
12Evan Kinter19:47.9Detroit Catholic Central134.0
12Arjun Sehgal19:50.4Novi133.2
12Danny Anderson19:51.7Detroit Catholic Central132.8
12Cody Sykes19:53.3Belleville132.2
10Peyton Rider19:53.6South Lyon East132.1
12Jean-Luc Faison19:55.0Rochester Hills Stoney Creek131.7
12Sohil Jayee19:56.0Northville131.3
10Joey Cavins19:56.0Rochester Hills Stoney Creek131.3
10Braxon Lake19:56.0Temperance Bedford131.3
11Yuma Tsubouchi20:02.3Dexter129.2
10John Lonsway20:02.8Sterling Heights Stevenson129.1
9Grason Weber20:03.2Leslie128.9
12Dean Moshier20:04.0Auburn Hills Oakland Christian128.7
11Solomon Strong20:04.8South Lyon East128.4
11Hassan Salame20:05.3Dearborn Heights Crestwood128.2
11Michael Haass20:05.4Detroit Catholic Central128.2
11Tommy Abazi20:06.6Southfield Christian127.8
11Logan Jeannette20:07.9White Lake Lakeland127.4
10David Fahim20:09.9Northville126.7
11Leo Savona20:10.0Royal Oak126.7
11Luke Styber20:10.9Sterling Heights Stevenson126.4
10Tom Shafer20:15.7Lutheran HS Westland124.8
10Will Scally20:16.0Romeo124.7
12Jacob Hodges20:16.0Walled Lake Western124.7
9Alexander Lipski20:16.1Northville124.6
11Lucas Shemansky20:18.1Fraser124.0
12Will O’Haver20:21.7Dexter122.8
11Trevor Nichols20:22.1Livonia Franklin122.6
10Alejandro Valenzuela20:23.6Novi122.1
10Parker Razelun20:24.7Ann Arbor Skyline121.8
9Dallin Ormond20:25.1Walled Lake Western121.6
11Drew Koskyn20:25.9Livonia Stevenson121.4
9Bruno Cifaldi20:26.2Ann Arbor Skyline121.3
9Luke Mulka20:26.4Utica Ford121.2
11Robert Ogilvy20:26.6Utica Ford121.1
12Anthony Kruszka20:26.9Temperance Bedford121.0
10Ethan Tarhanich20:27.7Livonia Franklin120.8
10Drew Almquist20:27.7Novi120.8
10Edmund Shall20:27.9Grosse Pointe South120.7
11Julian Liang20:28.6Novi120.5
10Henry Johnston20:30.1Northville120.0
12Erik Dexter20:30.3Leslie119.9
10Joey Zoorob20:32.4Rochester Hills Stoney Creek119.2
12Luc Michaud20:32.8Grosse Pointe South119.1
9Cole Doty20:33.7Dexter118.8
11Kadyn Rodgers20:33.8Livonia Franklin118.7
12Vincenzo Lewan20:34.4Plymouth Christian Academy118.5
11Matthew Schmidt20:35.1South Lyon East118.3
11Brett Bardallis20:35.3South Lyon East118.2
12Landon Wilson20:37.7Dexter117.4
10Trevor Mulheisen20:38.1Royal Oak117.3
10Maceo Colon20:38.1Temperance Bedford117.3
10Jaiden Magat20:38.7Royal Oak117.1
12Fleet James20:42.0Royal Oak116.0
11Hudson Novak20:42.2Walled Lake Western115.9
12Joe Stopczynski20:42.4Detroit Catholic Central115.9
9Alex Richard20:43.0Livonia Franklin115.7
11Charlie Sands20:43.6Northville115.5
12Aidan McLaughlin20:43.8Livonia Franklin115.4
10Travis Niemi20:47.3Howell114.2
11Derek Yaek20:47.4Warren DeLaSalle114.2
12Angel Aleman-Contreras20:47.6Belleville114.1
11Carter Lukas20:50.0Novi113.3
11Tyler Boyce20:51.1Livonia Franklin113.0
10Nathan Salazar20:52.5Madison Heights Bishop Foley112.5
12Dylan Kelly20:52.6Northville112.5
12Adam Moore20:52.6Plymouth Christian Academy112.5
12Austin Darr20:53.0Warren DeLaSalle112.3
10Eli Hinkleman20:53.3Temperance Bedford112.2
9Brennan Bosanic20:54.0Macomb L’Anse Creuse North112.0
12Kazi Knowlin20:55.1New Baltimore Anchor Bay111.6
11Jack Burin20:55.3Dexter111.6
12Anton Akroush20:56.5Sterling Heights Stevenson111.2
12Joey Zarra20:56.5Walled Lake Western111.2
11Connor Curtis20:56.6Livonia Stevenson111.1
11Jackson Morgan20:57.5Northville110.8
10Grant Newell20:57.5Rochester Hills Stoney Creek110.8
12Owen Sanford20:57.7Northville110.8
12Samuel Rusch20:58.7New Baltimore Anchor Bay110.4
12Samer Ayache20:59.6Dearborn Heights Crestwood110.1
10Leyton Weak20:59.8Livonia Stevenson110.1
11John Thompson21:00.1New Baltimore Anchor Bay110.0
11Nathan Betke21:02.0Lutheran HS Westland109.3
10Jackson Cargill21:02.5Mason109.2
10Kyan Isham21:03.6Leslie108.8
12Nathan Ehnis21:04.9Belleville108.4
10Seth Slater21:05.0Southfield Christian108.3
10Harsimar Arora21:05.1Novi108.3
10Ayden McDonald21:05.7White Lake Lakeland108.1
11Gunnar Rochon21:06.0Belleville108.0
10Malaki Muhammud21:06.0Ypsilanti Community108.0
11Austin Ahler21:06.6Rochester Hills Lutheran NW107.8
10Bryce Bales21:07.0Dexter107.7
12David Sherfield21:08.0Livonia Franklin107.3
10Jack Huber21:08.1Ann Arbor Skyline107.3
12Dillan Johns21:08.2Madison Heights Lamphere107.3
9Noah Reggio21:09.8Romeo106.7
12Tanmay Kundapur21:11.0Northville106.3
10Jonas Enriquez21:11.9Temperance Bedford106.0
10Connor Latta21:13.4Northville105.5
12Joey Stirling21:13.5Walled Lake Western105.5
9Gage Bihn21:17.5Temperance Bedford104.2
9Simon Justin21:21.3Grosse Pointe South102.9
12Alex Messing21:22.9Livonia Stevenson102.4
11Aiden Champagne21:23.0New Baltimore Anchor Bay102.3
12Ethan Anthes21:25.4Mason101.5
10Brennan Quan21:25.4Northville101.5
10Carter Vinson21:26.0Romeo101.3
11Carter Hill21:26.1Dexter101.3
9Seamus Murphy21:26.2Romeo101.3
12Dominic Catallo21:26.6Lutheran HS Westland101.1
10Matthew McGill21:28.2Dexter100.6
9David Mann21:28.7Sterling Heights Stevenson100.4
10Micah Day21:28.8Livonia Stevenson100.4
10Mason Newman21:29.1Northville100.3
9Rehaan Chattopadhyay21:29.2Northville100.3
10Moe Ali Al-Sabeh21:30.9Dearborn Heights Crestwood99.7
12Arnav Sawant21:34.1Rochester Hills Stoney Creek98.6
10Cam McVittie21:35.1Northville98.3
9Austin Bermingham21:35.6Northville98.1
10Samuel Cassin21:36.3Northville97.9
9Dean Gallucci21:37.6Utica Ford97.5
10Dylan Dedloff21:39.2Fraser96.9
11Michael Vu21:39.3Northville96.9
12Dominick Perry21:42.4Livonia Franklin95.9
9Justin Grissom21:43.2Lutheran HS Westland95.6
10Victor Porter21:44.6Livonia Stevenson95.1
9Easton Smerek21:44.8Warren DeLaSalle95.1
11Toby Brown21:45.0Novi95.0
9Aldo Hernandez21:47.3Wayne Memorial94.2
12Andrew Rulison21:48.5Grosse Pointe South93.8
11Jacob Dolezel21:48.6Fraser93.8
11Torin Friedrichs21:51.7Birmingham Seaholm92.8
12Nathan Sweeney21:53.3Grosse Pointe South92.2
9Wyatt Gould21:56.3Romeo91.2
9Ross Callahan21:56.4Northville91.2
12Eric Beard21:57.6Grosse Pointe South90.8
9Nathan Kafoury21:58.5Warren DeLaSalle90.5
12Sean Neafsey21:59.8Northville90.1
10Donald Nurkala22:01.2Detroit Catholic Central89.6
11Will Kletzka22:05.5Dexter88.2
10Blake Cabble22:08.5Dexter87.2
9Myles Meldrum22:08.5Grosse Pointe South87.2
10Jack Robichaud22:10.8Ann Arbor Skyline86.4
11Philip Tesic22:14.6Novi85.1
11Havish Pallerla22:16.3Novi84.6
10Andre Buford22:17.3Sterling Heights Stevenson84.2
9Nathan Vanassche22:20.2Belleville83.3
9Kasen Salazar22:20.3Dexter83.2
11Dalton Dunn22:21.9Mason82.7
11Jack Khoury22:22.9Auburn Hills Oakland Christian82.4
11Thomas Rhodenizer22:25.0Fraser81.7
10Patrick (PJ) Carty22:25.8Dexter81.4
12Garrett Zuber22:25.8White Lake Lakeland81.4
10Patrick Delavan22:26.4Rochester Hills Stoney Creek81.2
10Ethan Beard22:29.7Grosse Pointe South80.1
12Anthony Thaxton22:29.9Livonia Franklin80.0
9Wenhan Xu22:30.8Novi79.7
9Landon Johns22:30.8White Lake Lakeland79.7
12Nathan Robke22:31.5Dexter79.5
11Logan Hile22:31.8Leslie79.4
11Johnathan Ball22:31.8Temperance Bedford79.4
10Ben Giroux22:32.2Rochester Hills Stoney Creek79.3
12Matthew Robinson22:33.9Livonia Stevenson78.7
10Aaron Messing22:34.1Livonia Stevenson78.6
10Matthew Casavant22:34.4Dexter78.5
11Joey Hickey22:34.9Rochester Hills Stoney Creek78.4
9Anthony Kraus22:36.6Temperance Bedford77.8
11Ethan Thomas22:38.1Temperance Bedford77.3
10Colton Malaikal22:38.5Northville77.2
10Isaiah Thomason-Redus22:40.3Grosse Pointe South76.6
11Miguel Truschel22:42.4Northville75.9
10Eric Koons22:44.5Howell75.2
11Joey Mastie22:46.1Belleville74.6
11Colby Barajas22:47.1Livonia Franklin74.3
10Russel Mangiapane22:47.5Lutheran HS Westland74.2
10Chet Sands22:48.3Northville73.9
12Hunter Szczur22:49.3Sterling Heights Stevenson73.6
12Jake Law22:49.8White Lake Lakeland73.4
11Nathan Gillespie22:49.9Temperance Bedford73.4
11Mike Mallie22:51.0Detroit Catholic Central73.0
10Isaac Contreras-Brumley22:51.1Royal Oak73.0
9Charles Gilbert22:51.5Romeo72.8
10James Mauney22:51.6South Lyon East72.8
11Justin Shi22:53.1Northville72.3
12Peter Goodman22:53.6Northville72.1
10Austin Alexander22:54.1Northville72.0
12Michael Hanes22:54.4Northville71.9
12David Stojkovski22:55.4Northville71.5
12Ethan Sikora22:55.6Belleville71.5
12David Luhring22:56.7Rochester Hills Lutheran NW71.1
9Aaron Osterman22:56.8New Baltimore Anchor Bay71.1
12Luke Witte22:59.5Lutheran HS Westland70.2
12Jakob Oetzel22:59.6Huron Valley Lutheran70.1
11Sean Gretzinger23:00.9Walled Lake Western69.7
12Johnny Stack23:01.7Belleville69.4
10Travis Rupe23:02.1Lutheran HS Westland69.3
9Grant Lark23:02.4Detroit Catholic Central69.2
12Kyle Sutton23:03.1Dexter69.0
10Tucker Fulk23:05.6Livonia Stevenson68.1
9Colin Coole23:05.7Livonia Stevenson68.1
9Nico Mangino23:06.9Utica Ford67.7
12John Larocca23:06.9Warren DeLaSalle67.7
12Zavion Ayler23:07.0Wayne Memorial67.7
10Peter O’Brien23:08.8Birmingham Seaholm67.1
10Jaylen Johnson23:10.9Wayne Memorial66.4
11Calen Priddy23:11.2Detroit Catholic Central66.3
9Alex Kardasz23:12.4Warren DeLaSalle65.9
11Trenton Hawes23:13.1Howell65.6
12Anthony Rosato23:14.0Wayne Memorial65.3
12Weston Brock23:15.1Rochester Hills Stoney Creek65.0
9Trent Yeager23:15.8Temperance Bedford64.7
11Mikey Alberty23:16.0Detroit Catholic Central64.7
10Jaiden Spratt23:19.3Grosse Pointe South63.6
10Max Sinanis23:20.2Novi63.3
11Eric Furuya23:23.6Rochester Hills Stoney Creek62.1
9Ben Walls23:23.8Lutheran HS Westland62.1
11Charlie Seip23:25.0Warren DeLaSalle61.7
9Josiah Zarrilli23:25.8Auburn Hills Oakland Christian61.4
12Aedan Vermeulen23:25.8Rochester Hills Stoney Creek61.4
9Joseph Stevens23:26.3Southfield Christian61.2
12Gavin Kowalski23:27.0Warren DeLaSalle61.0
10Anthony Almeranti23:29.6New Baltimore Anchor Bay60.1
10Brody Fitzgibbon23:30.3Grosse Pointe South59.9
11Jack Doody23:34.1Lutheran HS Westland58.6
9Hunter Novakovich23:35.2Belleville58.3
9Quinn Hudson23:35.4Temperance Bedford58.2
10Jacob Kosidlo23:38.2White Lake Lakeland57.3
9Clyde Sterling23:39.8Rochester Hills Stoney Creek56.7
11Matthew Eblen23:46.7White Lake Lakeland54.4
12Anthony Burley23:49.5Madison Heights Bishop Foley53.5
9D’Angelo Lucarelli23:49.6Temperance Bedford53.5
10Hussein Ayoub23:50.3Dearborn Heights Crestwood53.2
10Alex Watson23:58.5Dexter50.5
10Tethyan McKenzie23:58.5Grosse Pointe South50.5
9Dominic Burley23:59.2Madison Heights Bishop Foley50.3
10Marty Watson23:59.3Dexter50.2
10Ian Sanchez24:01.1Wayne Memorial49.6
9Elliott Ryan24:01.8Northville49.4
10Landon Whitehead24:04.7Dexter48.4
9Maxwell Gearhart24:05.6Auburn Hills Oakland Christian48.1
11Aiden Webber24:09.3Madison Heights Bishop Foley46.9
9Ben Riemer24:10.6Northville46.5
10James Minelli24:10.7Dexter46.4
12Jacob Rowinski24:10.7Madison Heights Bishop Foley46.4
10David Ward24:16.1Mason44.6
10Georgio Aramouni24:16.6Madison Heights Lamphere44.5
12Doug Ritter24:21.0Northville43.0
9Dominic Lonsway24:26.1Sterling Heights Stevenson41.3
10Nolan Osbun24:28.1Mason40.6
10Carter Woolm24:29.8New Baltimore Anchor Bay40.1
11Jaxson Cicotte24:30.0Dexter40.0
11James Weldon24:30.6Livonia Franklin39.8
9Evan Lent24:31.3Walled Lake Western39.6
9Jay Shink24:33.6South Lyon East38.8
9Dylan Strand24:37.6White Lake Lakeland37.5
11Lucas Kim24:40.9Northville36.4
9elias Schnarr24:41.4Rochester Hills Stoney Creek36.2
11JT Friel24:41.7Detroit Catholic Central36.1
9David Wille24:43.6Rochester Hills Stoney Creek35.5
11Viraj Nautiyal24:44.3Birmingham Seaholm35.2
9Luke Roberts24:47.8Livonia Stevenson34.1
10Owen Dobrowitsky24:51.4Birmingham Seaholm32.9
9Haroon Khan24:51.7Birmingham Seaholm32.8
12Nathan Westover24:53.1South Lyon East32.3
10Nikolai Sawasky24:53.2Walled Lake Western32.3
9Jacob Gallagher24:53.4Leslie32.2
9Danny Storrs24:55.7Warren DeLaSalle31.4
9Milo Heiss24:57.5South Lyon East30.8
10Michael Allen25:03.2Grosse Pointe South28.9
9Sam Nielsen25:05.6Fraser28.1
9Titus Gorsegner25:05.7Huron Valley Lutheran28.1
9Carson Dubose25:10.4Leslie26.5
12Luke de Chazal25:10.4Rochester Hills Stoney Creek26.5
9Andrew Bucher25:16.4Fraser24.5
9Benjamin Kmieciak25:16.6Northville24.5
11Charlie Lutz25:17.4Dexter24.2
12Michael Cynowa25:19.2Madison Heights Bishop Foley23.6
12Alex Ruhl25:19.3South Lyon East23.6
10Athan Shizas25:19.9Rochester Hills Stoney Creek23.4
12Walter Randall25:20.0Livonia Stevenson23.3
9Konnor Cavazos25:20.4Livonia Stevenson23.2
12Brandon Perdew25:23.0Madison Heights Bishop Foley22.3
12Aidan Vata25:23.8Northville22.1
11Anton Gegaj25:24.0Sterling Heights Stevenson22.0
10Harsh Ahire25:24.3Novi21.9
9James Natale25:24.6Plymouth Christian Academy21.8
10Jaski Singh25:28.7Novi20.4
10Max Maynard25:30.5Madison Heights Bishop Foley19.8
10Desmond Reinhard25:34.0Belleville18.7
9Dylan Hile25:34.9Leslie18.4
9Ethan Gerber25:35.1Fraser18.3
12James Dulzo25:38.2Detroit Catholic Central17.3
9Logan Makowski25:38.4Northville17.2
11Daniel Panis25:39.6Royal Oak16.8
9Andrew Abramowicz25:40.6Lutheran HS Westland16.5
10Levi Whitehead25:40.8Dexter16.4
9Brent Monterosso25:44.6Romeo15.1
9Brandon Fox25:46.9Northville14.4
9Jacob Alt25:50.4Ypsilanti Community13.2
9Jason Biggs25:51.0Dexter13.0
9Kyle Massimilla25:51.1Utica Ford13.0
9Gabriel Coraci25:51.5Madison Heights Bishop Foley12.8
9Luke Kavanaugh25:58.9Madison Heights Bishop Foley10.4
9Caiden McKenzie26:01.0White Lake Lakeland9.7
10Caleb Vincent26:04.1Mason8.6
10Jacob Lewandowski26:04.7Sterling Heights Stevenson8.4
12Henry Cornell26:08.6Belleville7.1
10Marcus Silva26:10.5Dexter6.5
10Teddy Pawlowski26:13.3Livonia Franklin5.6
9Dylan Hartmann26:17.4Livonia Stevenson4.2
10Evan Lajiness26:21.0Sterling Heights Stevenson3.0
9Jack Kalbfleisch26:24.3Birmingham Seaholm1.9
9Jonah Hoogewind26:24.5Birmingham Seaholm1.8

GradeNameTimeTeamRating
12Madison Clor18:58.5Romeo151.8
11Carrigan Eberly19:10.7Brighton147.8
12Mackenzie Wright19:11.8Howell147.4
10Alena Blumberg19:31.4Dexter140.9
10Brennan Lowman19:33.5Utica Ford140.2
11Nikki Carothers19:38.8Brighton138.4
12Caroline Vance19:40.0Ann Arbor Skyline138.0
12Lily Solek19:40.7Rochester Hills Stoney Creek137.8
10Violet Hrabovsky19:42.5Romeo137.2
12Cara Newman19:51.7Canton134.1
11Layla Krayem19:58.2Livonia Stevenson131.9
11Addison Johnson20:00.2Utica131.3
9Emmerson Clor20:03.9Romeo130.0
12Katie Knish20:05.3Rochester Hills Stoney Creek129.6
12Natalie Kessler20:07.4Ann Arbor Skyline128.9
12Meagan Verellen20:07.9Utica128.7
11Alisia Olteanu20:09.9Walled Lake Western128.0
12Genavieve Kushner-Lopez20:12.2Walled Lake Western127.3
11Alexis Pickerel20:16.6Canton125.8
12Abigail German20:18.2Novi125.3
10Grace Grupido20:19.3Fraser124.9
9Mya Pickerel20:33.3Canton120.2
9Lydia LaMarra20:33.5Brighton120.2
10Annabel O’Haver20:36.3Dexter119.2
11Allison Mayer20:37.3Ann Arbor Skyline118.9
11Kate Varitek20:37.8Dexter118.7
11Emma Hoffmeyer20:43.1Walled Lake Western117.0
10Eliza Keith20:44.5Auburn Hills Oakland Christian116.5
12Erika Van Loton20:44.8Huron Valley Lutheran116.4
11Gabrielle Bolitho20:46.5Brighton115.8
12Anjali Kidambi20:46.7Novi115.8
11Emerson Nordbeck20:47.4Livonia Franklin115.5
12Amyla Eberhart20:49.7South Lyon East114.8
11Sofia Figueroa20:51.7Wayne Memorial114.1
12Mia Cholewa20:52.2Howell113.9
12Stella Farmer20:54.0Brighton113.3
10Elle Bissett20:55.2Brighton112.9
12Makenna Musser20:55.5Rochester Hills Stoney Creek112.8
11Gracie Youngblood20:56.9Romeo112.4
9Siene Muraszewski20:57.3Utica112.2
10Audrey Haus20:58.0Brighton112.0
11Megan Kowalski20:58.7Brighton111.8
12Bella Grant21:01.0South Lyon East111.0
12Ava Rawley21:04.8Utica109.7
10Kaelin Hughes21:05.2Livonia Stevenson109.6
10Addison Bruckman21:05.3Dexter109.6
12Emonie Bonner21:06.5Livonia Franklin109.2
11Diane Weber21:06.5Ypsilanti Community109.2
9Maize Cavanaugh21:09.4Brighton108.2
9Leah Corby21:09.5Rochester Hills Stoney Creek108.2
11Abby Watkins21:12.7Brighton107.1
10Addison Verlinden21:13.2Lake Orion106.9
11Kennedy Roskopp21:13.3Warren Regina106.9
11Nora Schley21:17.4Canton105.5
12Ella Koons21:18.3Howell105.2
10Rosa Brody21:21.3Canton104.2
9Hailey Creisher21:22.0Leslie104.0
10Ava Peters21:22.3Livonia Franklin103.9
10Savannah Spangler21:25.1Grosse Pointe South103.0
10Olivia Purdy21:25.2Romeo102.9
10Erin Lubahn21:28.6Leslie101.8
11Taylor Steinagel21:30.3Canton101.2
11Lily Hetzel21:30.9Salem101.0
12Lydia Cocciolone21:31.5Ann Arbor Skyline100.8
10Elizabeth Ambroggio21:32.3Warren Regina100.6
12Abby Fifield21:34.3Utica99.9
12Leah White21:36.3Ann Arbor Skyline99.2
9Natalia Guaresimo21:39.8Romeo98.1
12Lea MacGregor21:39.9Howell98.0
10Olivia Shaieb21:40.2Dexter97.9
11Sarah Barnett21:40.9Royal Oak97.7
10Hannah Kulick21:41.0Salem97.7
9Nadia Fedorinchik21:41.7Lake Orion97.4
11Maura Lichiello21:42.0Howell97.3
9McKinnon Nordbeck21:43.5Livonia Franklin96.8
10Stacie Ruzzin21:43.7Utica Ford96.8
12Skyila Shuryan21:44.3Wayne Memorial96.6
12Brigit Foley21:45.6Wixom St. Catherine96.1
11Remi Flanz21:46.1Fraser96.0
9Elizabeth Crawford21:54.4Lake Orion93.2
12Anna Boesch21:57.7Farmington Hills Mercy92.1
12Avery Saunder22:00.0Macomb L’Anse Creuse North91.3
11Talia Sachs22:03.7Birmingham Seaholm90.1
11Abby Rice22:04.3Rochester Hills Lutheran NW89.9
9Grace Kim22:05.1Farmington Hills Mercy89.6
11Ella Showerman22:05.2South Lyon East89.6
11Elaine Burkmyre22:05.4Walled Lake Western89.5
9Evelyn Kuhn22:06.6Livonia Franklin89.1
10Maureen Mangan22:08.9Brighton88.4
9Selena White22:08.9Brighton88.4
12Gwendolyn McGuire22:09.0Birmingham Seaholm88.3
12Sarah Halliday22:10.7Howell87.8
12Ava Carr22:12.7Grosse Pointe South87.1
12Antonia Bruckman22:13.5Dexter86.8
12Isabelle Fairless22:13.5Royal Oak86.8
10Natalie Lentine22:14.9Warren Regina86.4
11Saniya Reddy22:15.9Novi86.0
11Emilee Balzer22:16.1Brighton86.0
11Alyssa Ko22:16.2Rochester Hills Stoney Creek85.9
11Lauren Thomas22:19.0New Baltimore Anchor Bay85.0
11Anna Schroeder22:20.2Royal Oak84.6
10Kasie Kalist22:22.2Romeo83.9
10Elaina Braunscheidel22:23.9Livonia Stevenson83.4
12Madeleine Barge22:24.0Rochester Hills Lutheran NW83.3
11Isabel Hanson22:25.5Rochester Hills Stoney Creek82.8
11Rachel Phillips22:28.7Utica Ford81.8
10Megan Fannon22:29.4South Lyon East81.5
10Alyssa Vietzke22:30.0Sterling Heights Stevenson81.3
12Reganne Koskela22:30.5South Lyon East81.2
9Carina Tortelli22:32.5Novi80.5
12Leah Kuhn22:33.0Livonia Franklin80.3
12Anna Holloway22:35.3Fraser79.6
9Juliet Lewis22:37.3Brighton78.9
10Norah Lesner22:37.6Utica78.8
12Megan O’Day22:39.3Dexter78.2
11Ella Mitchell22:40.3Dexter77.9
10Katie Macey22:41.0Royal Oak77.7
12Logan Smythe22:41.3Utica77.6
12Michaela Kurth22:41.4Lutheran HS Westland77.5
10Chloe Caulfield22:42.5Grosse Pointe South77.2
11Frances Walewski22:46.1Salem76.0
11Leah Zarrilli22:46.8Auburn Hills Oakland Christian75.7
10Hannah Sisson22:47.3Dexter75.6
11Aubrey Burke22:47.5Salem75.5
11Lily Gumber22:47.9Salem75.4
9Katelyn Frazier22:48.7Fraser75.1
9Courtney Lince22:48.8Brighton75.1
10Luciana Rodriguez22:50.5Fraser74.5
11Ella Lamendola22:51.7Rochester Hills Stoney Creek74.1
11Morgan Gill22:54.2Rochester Hills Stoney Creek73.3
11Maddie Feurig22:55.1Lake Orion73.0
10Brooklyn Hannah22:56.3Livonia Franklin72.6
11Molly O’Brien22:56.6Marian (Bloomfield Hills)72.5
10Madalynn Karsies22:58.2Pinckney71.9
12Claire Zurowick22:59.4Grosse Pointe South71.5
11Naomi Piasecki23:00.2Farmington Hills Mercy71.3
10Erin Gallagher23:01.1South Lyon East71.0
12Natalie Malczyk23:01.8Huron Valley Lutheran70.7
9Madi Hare23:02.0Plymouth Christian Academy70.7
9Ellee Cole23:02.8Lutheran HS Westland70.4
11Maia Conway23:03.4Royal Oak70.2
10Ayla Balazer23:05.2Ann Arbor Skyline69.6
11Mira Renaldi23:05.2Canton69.6
11Kloie Roy23:05.8Grosse Pointe South69.4
10Sydney Brickel23:05.8Romeo69.4
9Anna Green23:06.5Brighton69.2
12Payton Ball23:06.9Mason69.0
10Allison DiTullio23:08.9Salem68.4
9Mya Tass23:09.2Novi68.3
11Brianna Wheaton23:10.3Pinckney67.9
9Kaitlyn Gronowski23:12.3Mason67.2
9Gianna D’Angelo23:13.5Utica Ford66.8
11Celia Begosso23:14.8Ann Arbor Skyline66.4
11Rose Pebbles23:17.8Novi65.4
10Addison Streetman23:20.6Dexter64.5
10Jaidyn Smith23:21.7Leslie64.1
9Lillian Brodoski23:22.0Lake Orion64.0
11Katie Broth23:22.0Lake Orion64.0
11Gabby Fernandez23:22.4Warren Regina63.9
10Gabrielle Miller23:22.7Fraser63.8
11Morgan Engberg23:22.7South Lyon East63.8
10Luciana Lacroix23:23.7Lake Orion63.4
11Kendall Zaliwski23:26.5Rochester Hills Lutheran NW62.5
12Katherine Sullivan23:27.8Livonia Stevenson62.1
12Megan Kennedy23:28.7Rochester Hills Stoney Creek61.8
11Lydia Martoni23:30.2Fraser61.3
9Cayla Marzban23:31.0Brighton61.0
9Hannah Bougher23:31.5Dexter60.8
10Sofia Minniti23:31.6Wixom St. Catherine60.8
10Rhya Wright23:32.5Dexter60.5
10Kylie Pung23:33.9Howell60.0
9Isabelle Downs23:34.1South Lyon East60.0
12Emiliya Ramazanova23:34.8Livonia Franklin59.7
12Grace Wininger23:36.5Grosse Pointe South59.2
10Kayley Cleary23:37.0Howell59.0
11Charlotte Kime23:38.3Brighton58.6
11Mackie Shoskey23:38.9Lake Orion58.4
12Katie Doneth23:39.1Mason58.3
11Madison Juchno23:41.6Wixom St. Catherine57.5
10Raelyn Brady23:44.0New Baltimore Anchor Bay56.7
12Anya Rosenthal23:44.0Utica56.7
9Adele Bush23:44.7Birmingham Seaholm56.4
9Charlotte Laabs23:46.9Wixom St. Catherine55.7
10Meredith Pagett23:51.8South Lyon East54.1
9Brooke McFarland23:52.8Utica53.7
10Alaa Selman23:55.2Dearborn Heights Crestwood52.9
12Isabella Yaldoo23:58.5Walled Lake Western51.8
10Maddox Lundsten23:58.7Rochester Hills Stoney Creek51.8
11Eleanor Kroetsch24:00.0Utica51.3
11Carmellina Biafora24:00.6Madison Heights Bishop Foley51.1
11Georgia New24:01.8Canton50.7
11Gracie Tarquinto24:02.0Canton50.7
9Sara Wayne24:03.5Dearborn Heights Crestwood50.2
9Kenna Klonowski24:05.1South Lyon East49.6
10Sunnie Fabian24:06.9Livonia Franklin49.0
12Ruth Adewusi24:06.9Warren Regina49.0
11Maddi McCullough24:08.5Romeo48.5
10Ava Martynenko24:08.6Novi48.5
9Sarah Jeong24:09.8Novi48.1
12Carlie Woolm24:10.9New Baltimore Anchor Bay47.7
12Lauren Head24:11.8Lake Orion47.4
10Josephine Malysz24:11.8Madison Heights Bishop Foley47.4
9Sydney Duby24:12.2Lake Orion47.3
10Leah Alarie24:12.5Birmingham Seaholm47.2
12Hannah Pagett24:14.2South Lyon East46.6
11Savana Gabor24:16.1Canton46.0
12Quinn Hilla24:16.3Dexter45.9
11Karis Keith24:16.4Auburn Hills Oakland Christian45.9
10Dana Hazime24:16.5Dearborn Heights Crestwood45.8
9Eva Winter24:17.2Lake Orion45.6
11Mai Wahby24:18.0Salem45.3
9Drithi Padukone24:18.7Canton45.1
9Raley Keith24:21.4Auburn Hills Oakland Christian44.2
12Angell Martinez24:21.4Wayne Memorial44.2
11Aileen Bachrans24:22.9Ann Arbor Skyline43.7
11Zoe Zeiser24:24.0Utica43.3
9Jolene Thompson24:24.4Romeo43.2
10Yana Chamiso24:25.1Canton43.0
9Reagan Creem24:26.2Canton42.6
10Emma Hullinger24:26.5Romeo42.5
10Valeria Santurtun24:27.4Auburn Hills Oakland Christian42.2
12Sahithi Nalamothu24:27.6Salem42.1
12Emma Burrell24:29.0Rochester Hills Lutheran NW41.7
12Addison Appert24:29.2Canton41.6
10Isabella MacDonald24:33.3Romeo40.2
12Michelle Wesenberg24:34.1Livonia Stevenson40.0
12McKenna Lundy24:34.6South Lyon East39.8
12Allesandra Delbene24:34.7South Lyon East39.8
11Brianna Steffen24:36.3Macomb L’Anse Creuse North39.2
10Selina Lin24:37.4Birmingham Seaholm38.9
12Amanda Frantz24:37.6Grosse Pointe South38.8
12Kyra Andrews24:37.9Lake Orion38.7
11Jalynn Schmelter24:38.5Leslie38.5
10Macie Masterson24:40.3Utica Ford37.9
10Hannah Koziarz24:44.0Marian (Bloomfield Hills)36.7
10Ilett Martinez24:44.5Wayne Memorial36.5
11Kaelyn Craddock24:44.7Mason36.4
10Ellie Zauner24:45.1Sterling Heights Stevenson36.3
9Lucy VanHaerents24:45.9Royal Oak36.0
9Maria Narduzzi24:48.1Warren Regina35.3
10Katie Cairney24:48.2Fraser35.3
11Rachel Andree24:49.4Livonia Stevenson34.9
10Sophia Aquino24:50.1Utica34.6
11Tamia Conway24:50.2Royal Oak34.6
11Morgan Whitcomb24:53.5Howell33.5
11Grace Ligon24:54.0Southfield Christian33.3
9Giulianna Agrusso24:54.9Marian (Bloomfield Hills)33.0
9Maya Muskan24:55.1Romeo33.0
10Macey Lesner24:55.3Livonia Franklin32.9
11Finley Siegel24:56.1Farmington Hills Mercy32.6
12Delaney Kelley24:59.4Rochester Hills Stoney Creek31.5
11Kayla Creisher25:01.5Leslie30.8
9Lana Monkiewcz25:03.6Livonia Franklin30.1
12Abby Smith25:03.7Brighton30.1
11Carly Spigoda25:04.3Salem29.9
9Clara Groen25:04.5Plymouth Christian Academy29.8
9Charlotte Strausbaugh25:04.8Rochester Hills Stoney Creek29.7
9Nora Rioux25:06.8Howell29.1
11Sarah Gundlach25:07.1Marian (Bloomfield Hills)29.0
9Nina Denenberg25:08.3Birmingham Seaholm28.6
11Alexa Richardson25:11.5Birmingham Seaholm27.5
9Allison Doka25:14.3Rochester Hills Stoney Creek26.6
12Heather Woodward25:18.3Brighton25.2
11Jacquelynne Napthen25:18.3Salem25.2
11Emma BeBeau25:20.3Livonia Stevenson24.6
11Gia Palazeti25:21.1Farmington Hills Mercy24.3
12Samantha Mazza25:23.3Utica Ford23.6
11Megan Luke25:29.1Sterling Heights Stevenson21.6
10Addison Robke25:30.0Dexter21.3
11Evangeline Colarossi25:31.1Belleville21.0
11Emily Przybylski25:31.5Grosse Pointe South20.8
11Hannah Przybylski25:32.3Grosse Pointe South20.6
11Caitlyn Woll25:35.1Mason19.6
12Olivia Dickerson25:35.3Sterling Heights Stevenson19.6
9Viviana Ostrowski25:36.5Grosse Pointe South19.2
10Nicole Young25:36.8Livonia Stevenson19.1
11Annabel Flora25:36.8Royal Oak19.1
9Julia Richardson25:39.0Birmingham Seaholm18.3
10Mackenzie Johnson25:41.2Howell17.6
9Oona Landon25:41.2Salem17.6
12Mackenzie Zapinski25:42.6Salem17.1
10Baneen Al-Heleal25:43.4Ypsilanti Community16.9
11Krithvi Rayarapu25:44.4Canton16.5
12Yasmeen Nimer25:44.4Ypsilanti Community16.5
12Miranda Barba25:46.8Grosse Pointe South15.7
9Zaynib Ahmad25:47.1Dearborn Edsel Ford15.6
9Maria Pilarz25:48.2Wixom St. Catherine15.3
12Livianna Mattila25:49.6Pinckney14.8
10Rita Luhring25:49.6Rochester Hills Lutheran NW14.8
10Grace Johnson-Sears25:50.0Birmingham Seaholm14.7
10Kennedy Perez25:50.3Livonia Stevenson14.6
10Allison Tuttle25:51.9Utica14.0
11Alexandria Mason25:54.9Ann Arbor Skyline13.0
12Nisreen Chahine25:55.1Dearborn Heights Crestwood13.0
10Sophie Kreucher25:56.4Marian (Bloomfield Hills)12.5
9Christina Wenderski25:56.4Wixom St. Catherine12.5
11Sydney Dunn25:57.0Canton12.3
12Andrea Guitron-Ortiz25:57.0Rochester Hills Stoney Creek12.3
12Breanna Haines25:59.1Howell11.6
12Hope Conley26:02.0Lake Orion10.7
10Jaclyn Sterly26:02.9Belleville10.4
11Emily Sentz26:04.0Wayne Memorial10.0
9Sarah Gumber26:04.1Salem10.0
10Elizabeth Ballor26:04.4Madison Heights Bishop Foley9.9
12Klueg Clare (Rehema)26:04.8Farmington Hills Mercy9.7
11Adrienne Edge26:05.9Wixom St. Catherine9.4
11Maggie Grigg26:11.9Rochester Hills Stoney Creek7.4
12Kathleen Rachwal26:14.1Salem6.6
12Ashleigh Toth26:14.2Brighton6.6
12Jaye McNeil26:15.2Farmington Hills Mercy6.3
11Madelyn Hagerty26:16.0Pinckney6.0
12Parker Kern26:17.8Warren Regina5.4
11Cecelia Brush26:25.1Ann Arbor Skyline3.0
11Keira Christensen26:27.4South Lyon East2.2
10Theo Wattleworth26:28.7Royal Oak1.8
12Tia MacLennan26:29.1Brighton1.6
9Paige Zirk26:30.5Salem1.2
9Meghan Mullen26:30.7South Lyon East1.1
9Holly Heckel26:33.2Brighton0.3
11Marah Erkkinen26:33.4Sterling Heights Stevenson0.2

Leave a Reply

Fill in your details below or click an icon to log in:

WordPress.com Logo

You are commenting using your WordPress.com account. Log Out /  Change )

Twitter picture

You are commenting using your Twitter account. Log Out /  Change )

Facebook photo

You are commenting using your Facebook account. Log Out /  Change )

Connecting to %s